EI8HJ Weather Reports


time (UTC)temp
C
wind
direction
speed
KPH
gust
KPH
rain 1hr
cm
rain 24hr
cm
rain mn
cm
humidity
%
barometer
mb
20260508063540 10 67 4.8 9.7 0.00 0.15 0.15 73 1014.7
20260508062539 9 89 4.8 9.7 0.00 0.15 0.15 74 1014.8
20260508061541 9 52 3.2 8.0 0.00 0.15 0.15 74 1014.6
20260508060540 9 68 3.2 8.0 0.00 0.15 0.15 75 1014.6
20260508055540 9 81 3.2 9.7 0.00 0.15 0.15 74 1014.5
20260508054540 9 86 3.2 9.7 0.00 0.15 0.15 75 1014.3
20260508053540 9 59 4.8 9.7 0.00 0.15 0.15 74 1014.3
20260508052540 9 93 3.2 9.7 0.00 0.15 0.15 75 1014.2
20260508051540 9 87 3.2 9.7 0.00 0.15 0.15 74 1014.2
20260508050540 9 88 4.8 8.0 0.00 0.15 0.15 74 1014.3
20260508045539 9 67 3.2 9.7 0.00 0.15 0.15 76 1014.1
20260508044540 9 76 3.2 9.7 0.00 0.15 0.15 76 1014.0
20260508043540 9 76 4.8 9.7 0.00 0.15 0.15 76 1013.9
20260508042540 9 92 3.2 8.0 0.00 0.15 0.15 71 1014.1
20260508041540 8 59 3.2 4.8 0.00 0.15 0.15 73 1013.9
20260508040541 8 68 3.2 9.7 0.00 0.15 0.15 76 1013.8
20260508035539 8 65 4.8 12.9 0.00 0.15 0.15 74 1013.9
20260508034539 8 70 4.8 12.9 0.00 0.15 0.15 75 1013.8
20260508033539 8 177 3.2 4.8 0.00 0.15 0.15 75 1013.7
20260508032539 9 197 3.2 4.8 0.00 0.15 0.15 80 1013.9
20260508030540 9 196 1.6 4.8 0.00 0.15 0.15 76 1013.8
20260508025539 9 205 3.2 4.8 0.00 0.15 0.15 77 1013.7
20260508024539 10 161 1.6 3.2 0.00 0.15 0.15 75 1013.6
20260508023539 10 96 3.2 3.2 0.00 0.15 0.15 72 1013.5
20260508020540 9 254 1.6 3.2 0.00 0.15 0.15 74 1013.5
20260508015542 9 236 1.6 4.8 0.00 0.15 0.15 74 1013.5
20260508014542 9 257 1.6 4.8 0.00 0.15 0.15 74 1013.3
20260508013540 9 241 1.6 4.8 0.00 0.15 0.15 74 1013.4
20260508012540 10 224 3.2 4.8 0.00 0.15 0.15 73 1013.3
20260508011539 9 199 1.6 3.2 0.00 0.15 0.15 74 1013.2
20260508010539 10 156 1.6 3.2 0.00 0.15 0.15 74 1013.4
20260508004539 10 192 1.6 3.2 0.00 0.15 0.15 73 1013.3
20260508003540 10 221 1.6 3.2 0.00 0.15 0.15 73 1013.2
20260508002543 10 229 3.2 4.8 0.00 0.15 0.15 74 1013.3
20260508000539 10 277 3.2 4.8 0.00 0.15 0.15 74 1013.2
20260507235541 10 257 3.2 4.8 0.00 0.15 0.15 74 1013.2
20260507234540 10 238 1.6 3.2 0.00 0.15 0.15 73 1013.2
20260507233540 10 266 1.6 3.2 0.00 0.15 0.15 71 1013.1
20260507232539 10 239 1.6 8.0 0.00 0.15 0.15 71 1013.1
20260507231540 10 286 3.2 8.0 0.00 0.15 0.15 72 1013.1
20260507230546 10 257 3.2 9.7 0.00 0.15 0.15 73 1013.1
20260507225541 10 295 4.8 9.7 0.00 0.15 0.15 73 1012.9
20260507224539 10 290 4.8 9.7 0.00 0.15 0.15 74 1012.9
20260507223541 10 300 4.8 9.7 0.00 0.15 0.15 74 1012.7
20260507222542 10 287 4.8 8.0 0.00 0.15 0.15 71 1012.8
20260507215540 10 289 4.8 8.0 0.00 0.15 0.15 71 1012.9
20260507214540 10 285 4.8 8.0 0.00 0.15 0.15 72 1012.9
20260507213539 10 290 6.4 9.7 0.00 0.15 0.15 71 1012.6
20260507212540 10 289 4.8 9.7 0.00 0.15 0.15 72 1012.6
20260507211539 10 289 4.8 11.3 0.00 0.15 0.15 72 1012.6
20260507210539 10 286 6.4 9.7 0.00 0.15 0.15 72 1012.5
20260507205538 10 284 4.8 9.7 0.00 0.15 0.15 73 1012.4
20260507203539 10 256 1.6 1.6 0.00 0.15 0.15 81 1012.2
20260507202540 9 257 1.6 4.8 0.00 0.15 0.15 81 1012.1
20260507200539 10 259 1.6 3.2 0.00 0.15 0.15 79 1012.0
20260507194538 10 282 0.0 0.0 0.00 0.15 0.15 78 1011.9
20260507192538 10 282 0.0 0.0 0.00 0.15 0.15 76 1011.6
20260507190538 10 282 0.0 0.0 0.00 0.15 0.15 73 1011.5
20260507185538 10 282 0.0 4.8 0.00 0.15 0.15 73 1011.5
20260507183538 10 305 1.6 4.8 0.00 0.15 0.15 74 1011.4
20260507180538 10 275 3.2 8.0 0.00 0.15 0.15 80 1011.4
20260507174538 10 284 3.2 11.3 0.00 0.15 0.15 86 1011.2
20260507173538 10 281 8.0 12.9 0.00 0.15 0.15 85 1011.3
20260507172537 10 283 8.0 12.9 0.00 0.15 0.15 82 1011.3
20260507171538 10 276 4.8 12.9 0.00 0.15 0.15 80 1011.2
20260507170540 10 290 4.8 9.7 0.00 0.15 0.15 79 1011.1
20260507165538 10 297 4.8 11.3 0.00 0.15 0.15 80 1011.1
20260507164537 11 293 8.0 12.9 0.00 0.15 0.15 77 1011.0
20260507163539 11 295 9.7 14.5 0.00 0.15 0.15 78 1011.0
20260507162537 12 270 3.2 11.3 0.00 0.15 0.15 74 1011.1
20260507161539 12 248 6.4 11.3 0.00 0.15 0.15 76 1010.9
20260507160537 12 254 4.8 11.3 0.00 0.15 0.15 79 1010.8
20260507154538 12 256 4.8 9.7 0.05 0.15 0.15 78 1010.7
20260507153538 12 254 3.2 8.0 0.05 0.15 0.15 78 1010.7
20260507152537 12 239 4.8 11.3 0.05 0.15 0.15 74 1010.7
20260507151538 12 253 4.8 11.3 0.05 0.15 0.15 77 1010.8
20260507144538 12 251 4.8 12.9 0.05 0.15 0.15 79 1010.8
20260507143538 12 257 6.4 12.9 0.05 0.15 0.15 81 1011.0
20260507142537 12 240 9.7 12.9 0.05 0.15 0.15 77 1010.9
20260507140540 13 242 8.0 12.9 0.05 0.15 0.15 78 1010.8
20260507135538 12 241 8.0 11.3 0.05 0.15 0.15 81 1010.7
20260507134538 12 263 4.8 11.3 0.05 0.15 0.15 84 1010.7
20260507133536 11 250 4.8 9.7 0.05 0.15 0.15 89 1010.8
20260507132537 11 266 4.8 14.5 0.03 0.13 0.13 84 1011.0
20260507131537 12 258 3.2 9.7 0.00 0.10 0.10 81 1010.7
20260507130538 12 253 4.8 11.3 0.00 0.10 0.10 80 1010.9
20260507125536 13 252 8.0 11.3 0.00 0.10 0.10 78 1010.8
20260507124536 11 272 4.8 12.9 0.00 0.10 0.10 84 1010.9
20260507123536 12 220 8.0 12.9 0.00 0.10 0.10 80 1010.8
20260507122535 13 189 8.0 12.9 0.00 0.10 0.10 71 1010.9
20260507121538 13 211 8.0 11.3 0.00 0.10 0.10 72 1010.8
20260507120536 14 239 8.0 16.1 0.00 0.10 0.10 70 1010.9
20260507114537 13 228 8.0 16.1 0.00 0.10 0.10 70 1011.0
20260507113536 14 229 9.7 19.3 0.00 0.10 0.10 67 1010.8
20260507112537 13 220 11.3 19.3 0.00 0.10 0.10 72 1010.8
20260507111537 13 246 9.7 20.9 0.00 0.10 0.10 69 1010.9
20260507110537 13 249 11.3 19.3 0.00 0.10 0.10 67 1010.8
20260507105536 13 244 8.0 19.3 0.00 0.10 0.10 70 1011.0
20260507103536 13 220 9.7 16.1 0.00 0.10 0.10 70 1010.8
20260507102538 14 242 8.0 12.9 0.00 0.10 0.10 70 1010.9
20260507101536 13 240 3.2 8.0 0.00 0.10 0.10 73 1010.8
20260507100537 12 174 3.2 8.0 0.00 0.10 0.10 81 1010.8
20260507095536 12 245 4.8 11.3 0.00 0.10 0.10 80 1010.9
20260507094536 11 231 8.0 11.3 0.00 0.10 0.10 79 1010.8
20260507093537 11 229 8.0 14.5 0.00 0.10 0.10 76 1010.9
20260507091537 11 231 4.8 16.1 0.00 0.10 0.10 79 1010.7
20260507090538 11 222 9.7 20.9 0.00 0.10 0.10 79 1010.5
20260507085536 11 218 11.3 20.9 0.00 0.10 0.10 78 1010.7
20260507084536 12 163 9.7 16.1 0.00 0.10 0.10 75 1010.5
20260507083536 12 224 9.7 16.1 0.00 0.10 0.10 72 1010.6
20260507082536 13 255 8.0 14.5 0.03 0.10 0.10 68 1010.6
20260507081536 12 244 9.7 19.3 0.03 0.10 0.10 72 1010.6
20260507080536 12 236 8.0 14.5 0.03 0.10 0.10 73 1010.7
20260507074535 11 230 6.4 14.5 0.03 0.10 0.10 75 1010.6
20260507073535 12 234 6.4 16.1 0.03 0.10 0.10 75 1010.5
20260507070535 10 201 8.0 11.3 0.03 0.10 0.10 82 1010.5